Location: Brad
(46.1333°N, 22.7833°E)
Time: 04:09:51
(UTC+00:00)

Cosmos 841 Rocket - Pass Details

Date: 03 February 2023
Orbit: 746 x 771 km, 74.0° (Epoch: 29 March)

Event Time Altitude Azimuth Distance (km) Brightness Sun altitude
Rises 16:49:27 0° 343° (NNW) 3,256 6.8 -12.9°
Reaches altitude 10° 16:51:58 10° 350° (N) 2,325 6.0 -13.4°
Maximum altitude 16:56:57 41° 61° (ENE) 1,109 3.9 -14.2°
Drops below altitude 10° 17:01:54 10° 131° (SE) 2,303 5.6 -15.1°
Enters shadow 17:02:17 - 133° (SE) 2,441 5.7 -15.1°
